Medford, OR

6:35 AM PDT on September 19, 2019 (GMT -0700)
Rogue Valley International-Medford

Weather History for KMFR - August, 2019

Change the Weather History Date:

Saturday, August 24, 2019

  Actual Average Record
Temperature  
Mean Temperature 76 °F 72 °F  
Max Temperature 95 °F 89 °F 105 °F (1916)
Min Temperature 56 °F 56 °F 40 °F (1925)
Degree Days  
Heating Degree Days 0 0  
Month to date heating degree days 0 0  
Since 1 June heating degree days 31 60  
Since 1 July heating degree days 0 6  
Cooling Degree Days 10 8  
Month to date cooling degree days 248 229  
Year to date cooling degree days 729 661  
Since 1 June cooling degree days 697 623  
Growing Degree Days 26 (Base 50)    
Moisture  
Dew Point 46 °F    
Average Humidity 42    
Maximum Humidity 77    
Minimum Humidity 10    
Precipitation  
Precipitation 0.00 in 0.02 in 0.63 in (1978)
Month to date precipitation 0.84 0.30  
Year to date precipitation 14.70 10.04  
Snow  
Snow 0.00 in 0.00 in - ()
Month to date snowfall 0.0 0.0  
Since 1 July snowfall 0.0 0.0  
Snow Depth 0.00 in    
Sea Level Pressure  
Sea Level Pressure 29.91 in    
Wind  
Wind Speed 3 mph ()    
Max Wind Speed 18 mph    
Max Gust Speed 21 mph    
Visibility 10.0 miles    
Events      
T = Trace of Precipitation, MM = Missing Value Source: Averaged Metar Reports

Daily Weather History Graph

Daily Weather History Graph

Search for Another Location

Airport or City:

Astronomy

Aug. 24, 2019 Rise Set
Actual Time 6:28 AM PDT 7:58 PM PDT
Civil Twilight 5:58 AM PDT 8:28 PM PDT
Nautical Twilight 5:22 AM PDT 9:03 PM PDT
Astronomical Twilight 4:44 AM PDT 9:41 PM PDT
Moon 12:22 AM PDT (8/24) 3:24 PM PDT (8/24)
Length of Visible Light 14h 29m
Length of Day
13h 30m
Last Quarter, 38% of the Moon is Illuminated
Aug 24
Last Quarter
Aug 30
New
Sep 5
First Quarter
Sep 13
Full
Sep 21
Last Quarter

Hourly Weather History & Observations

Time (PDT) Temp. Dew Point Humidity Pressure Visibility Wind Dir Wind Speed Gust Speed Precip Events Conditions
12:53 AM 68.0 °F 53.1 °F 59% 29.86 in 10.0 mi Calm Calm - N/A   Clear
1:53 AM 66.0 °F 48.0 °F 52% 29.88 in 10.0 mi North 5.8 mph - N/A   Clear
2:53 AM 63.0 °F 48.9 °F 60% 29.88 in 10.0 mi Calm Calm - N/A   Clear
3:53 AM 62.1 °F 48.9 °F 62% 29.89 in 10.0 mi Calm Calm - N/A   Clear
4:53 AM 59.0 °F 50.0 °F 72% 29.91 in 10.0 mi Calm Calm - N/A   Clear
5:53 AM 60.1 °F 50.0 °F 69% 29.91 in 10.0 mi Calm Calm - N/A   Clear
6:53 AM 57.0 °F 50.0 °F 77% 29.93 in 10.0 mi North 4.6 mph - N/A   Clear
7:53 AM 59.0 °F 50.0 °F 72% 29.95 in 10.0 mi North 3.5 mph - N/A   Clear
8:53 AM 64.9 °F 50.0 °F 58% 29.96 in 10.0 mi North 3.5 mph - N/A   Clear
9:53 AM 70.0 °F 51.1 °F 51% 29.97 in 10.0 mi Calm Calm - N/A   Clear
10:53 AM 75.0 °F 48.9 °F 40% 29.95 in 10.0 mi West 3.5 mph - N/A   Clear
11:53 AM 80.1 °F 48.0 °F 32% 29.94 in 10.0 mi Variable 3.5 mph - N/A   Clear
12:53 PM 84.0 °F 43.0 °F 24% 29.92 in 10.0 mi Calm Calm - N/A   Clear
1:53 PM 89.1 °F 41.0 °F 19% 29.91 in 10.0 mi North 3.5 mph - N/A   Clear
2:53 PM 91.0 °F 39.0 °F 16% 29.88 in 10.0 mi WSW 3.5 mph - N/A   Clear
3:53 PM 93.0 °F 33.1 °F 12% 29.86 in 10.0 mi NW 4.6 mph - N/A   Clear
4:53 PM 93.9 °F 30.0 °F 10% 29.85 in 10.0 mi WNW 13.8 mph 20.7 mph N/A   Clear
5:53 PM 93.9 °F 39.0 °F 15% 29.85 in 10.0 mi WNW 8.1 mph - N/A   Clear
6:53 PM 90.0 °F 46.0 °F 22% 29.86 in 10.0 mi North 16.1 mph 19.6 mph N/A   Clear
7:53 PM 84.0 °F 48.0 °F 28% 29.89 in 10.0 mi North 9.2 mph - N/A   Clear
8:53 PM 79.0 °F 46.9 °F 32% 29.93 in 10.0 mi NNE 6.9 mph - N/A   Clear
9:53 PM 78.1 °F 46.9 °F 33% 29.94 in 10.0 mi North 5.8 mph - N/A   Clear
10:53 PM 75.9 °F 48.0 °F 37% 29.95 in 10.0 mi Calm Calm - N/A   Clear
11:53 PM 71.1 °F 52.0 °F 51% 29.95 in 10.0 mi Calm Calm - N/A   Clear